Reflectivity
-20 -20 11 -20 12 11 -20 -20 -20 -20 -20 -20 -20 -14 4 2 1 -10 -20 -20 -20 -20 -19 14 2 5 21 11 -18 -20 -20 -20 -20 -20 -20 -20 -20 -20 -20 -20 -20 -20 -20
-20 -20 9 -5 10 -19 -20 -20 -20 -20 -20 -20 -14 -5 10 8 3 0 -2 -20 -20 -20 -20 -20 -20 -20 -5 -20 -20 -20 -20 -20 -20 -20 -20 -20 -20 -20 -20 -20 -20 -20 -20
-20 -20 -20 3 16 0 -20 -20 -20 -20 -20 -20 -20 15 3 12 16 -19 12 -20 -20 -20 -20 -20 -20 -20 -20 -20 -20 -20 -20 -20 -20 -20 -20 -20 -20 -20 -20 -20 -2 -20 -20
-20 -20 -20 -20 -14 -15 -20 -20 -20 -20 -20 -20 -20 -20 -20 -20 15 15 -13 -20 -20 -20 -20 -20 -20 -20 -20 -20 -20 -20 -20 -20 -20 -20 -20 -20 -20 -20 -20 -20 6 -14 -20
-20 -20 -20 -20 -16 -20 -20 -20 -20 -20 -20 -20 -20 -20 12 -8 5 -11 -20 -20 -20 -20 -20 -20 -20 -20 -20 -20 -20 -20 -20 -20 -20 -20 -20 -20 -20 -20 -20 12 10 5 -7
-20 -20 -20 -20 4 -17 -20 -20 -20 -20 -20 -20 -20 -20 -14 10 9 -6 -20 -20 -20 -20 -20 -20 -20 -20 -20 -20 -20 -20 -20 -20 -20 -20 -20 -20 -20 -20 -20 -20 -3 -6 -15
-20 -20 -20 -20 -8 -20 -20 -20 -20 -20 -20 -20 -20 -20 -20 -15 16 13 9 -20 -20 -20 -20 -20 -20 -20 -20 -20 -20 -20 -10 -20 -20 -20 -20 -20 -20 -20 -20 -20 -19 -20 -2
-20 -20 -20 -20 -20 -20 -20 -20 -20 -20 -20 -20 -20 -20 -20 -20 7 -5 -20 -20 -20 -20 -20 -20 -20 -20 -20 -20 -20 -20 -20 -20 -20 -20 -20 -20 -20 -20 -20 -20 -20 10 -1
-20 -20 -20 -20 -20 -20 -20 -20 -20 -20 -20 -20 -20 -20 -20 -20 -20 12 -20 -20 -20 -20 -20 -20 -20 -20 -20 -20 -20 -20 -20 -20 -20 -20 -20 -20 -20 -20 -20 -20 -20 -20 -15
-20 -20 -20 -20 -20 -20 -20 -20 -20 -20 -20 -20 -20 -20 -20 -20 -20 -20 -20 -20 -20 -20 -20 -20 -20 -20 -20 -20 -20 7 9 5 -20 -20 -20 -20 -20 -13 7 6 -19 -20 -19
-20 -20 -20 -20 -20 -20 -20 -20 -20 -20 -20 -20 -20 -20 -20 -20 -20 -20 -20 -20 -20 -20 -20 -20 -13 -12 -0 12 5 12 1 -20 -20 -20 -20 -20 -15 -7 -9 16 24 17 17
-20 -20 -20 -20 -20 -20 -20 -20 -20 -20 -20 -20 -20 -20 -20 -20 -20 -20 -20 -20 -20 -20 -20 -14 -7 -4 -19 -20 -20 -20 -20 -20 -20 -20 -20 -20 -20 -20 -11 -20 -4 -17 3
-20 -20 -20 -20 -20 -20 -20 -20 -20 -20 -20 -20 -20 -20 -20 -20 -20 -20 -20 -20 -20 -20 -19 -20 -20 -20 -20 -20 -20 -20 -20 -20 -20 -20 -20 -20 -20 -20 -20 -20 -20 -20 -20
-20 -20 -20 -20 -20 -20 -20 -20 -20 -20 -20 -20 -20 -20 -20 -20 -20 -20 -20 -19 8 4 2 -20 -20 -20 -20 -20 -20 -20 -20 -20 -20 -20 -20 -20 -20 -20 -20 -20 -20 -20 -20
-20 -20 -20 -20 -20 -20 -20 -20 -20 -20 -20 -20 -20 -20 -20 -20 -20 -20 -2 9 -7 -1 -20 -20 -20 -20 -20 -20 -20 -20 -20 -20 -20 -20 -20 -20 -20 -20 -20 -20 -20 -20 -20
-20 -20 -20 -20 -20 -20 -20 -20 -20 -20 -20 -20 -20 -20 6 10 -6 -6 14 -3 -15 -20 -20 -20 -20 -20 -20 -20 -20 -20 -20 -20 -20 -20 -20 -20 -20 -20 -20 -20 -20 -20 -20
-20 -20 -20 -20 -20 -20 -20 -20 -20 -20 -20 -20 -20 2 13 6 -1 14 9 10 -1 -20 -20 -20 -20 -20 -20 -20 -20 -20 -20 -20 -20 -20 -20 -20 -20 -20 -20 -20 -20 -20 -20
-20 -20 -20 -20 -20 -20 -20 -20 3 9 -4 -1 -4 4 9 -4 6 11 -18 -20 -20 -20 -20 -20 -20 -20 -20 -20 -20 -20 -20 -20 -20 -20 -20 -20 -20 -20 -20 -20 -20 -20 -20
-20 -20 -20 -20 -20 -20 -20 -20 11 6 12 2 14 1 7 9 3 -8 -20 -20 -20 -20 -20 -20 -20 -20 -20 -20 -20 -20 -20 -20 -20 -20 -20 -20 -20 -20 -20 -20 -20 -20 -20
-20 -20 -20 -20 -20 -20 -20 -20 -10 12 11 12 2 11 -19 -20 -20 -20 -20 -20 -20 -20 -20 -20 -20 -20 -20 -20 -20 -20 -20 -20 -20 -20 -20 -20 -20 -20 -20 -20 -20 -20 -20
-20 -20 -20 -20 -20 -20 -20 -20 3 3 8 9 3 -20 -20 -20 -20 -20 -20 -20 -20 -20 -20 -20 -20 -20 -20 -20 -20 -20 -20 -20 -20 -20 -20 -20 -20 -20 -20 -20 -20 -20 -20
-20 -20 -20 -20 -20 -20 -20 -20 -20 -16 3 8 -17 -20 -20 -20 -20 -20 -20 -20 -20 -20 -20 -20 -20 -20 -20 -20 -20 -20 -20 -20 -20 -20 -20 -20 -20 -20 -20 -20 -20 -20 -20
-20 -20 -20 -20 -20 -20 -20 -20 -20 -20 -20 -14 -20 -20 -20 -20 -20 -20 -20 -20 -20 -20 -20 -20 -20 -20 -20 -20 -20 -20 -20 -20 -20 -20 -20 -20 -20 -20 -20 -20 -20 -20 -20
-20 -20 -20 -20 -20 -20 -20 -20 -20 -20 -20 -20 -20 -20 -20 -20 -20 -20 -20 -20 -20 -20 -20 -20 -20 -20 -20 -20 -20 -20 -20 -20 -20 -20 -20 -20 -20 -20 -20 -20 -20 -20 -20
-20 -20 -20 -20 -20 -20 -20 -20 -20 -20 -20 -20 -20 -20 -20 -20 -20 -20 -20 -20 -20 -20 -20 -20 -20 -20 -20 -20 -20 -20 -20 -20 -20 -20 -20 -20 -20 -20 -20 -20 -20 -20 -20
-20 -20 -20 -20 -20 -20 -20 -20 -20 -20 -20 -20 -20 -20 -20 -20 -20 -20 -20 -20 -20 -20 -20 -20 -20 -20 -20 -20 -20 -20 -20 -20 -20 -20 -20 -20 -20 -20 -20 -20 -20 -20 -20
Wind_Speed
5 7 14 16 15 15 16 13 11 10 8 7 7 11 13 11 9 6 7 8 7 5 4 7 9 10 8 7 6 5 4 3 4 6 7 6 6 5 5 5 4 3 6
9 8 15 15 15 16 15 13 11 10 8 8 8 14 14 12 9 6 6 6 6 3 4 6 6 7 7 6 2 1 0 2 4 6 6 6 7 7 7 7 4 3 8
11 8 10 13 13 15 15 13 11 10 9 8 7 9 9 7 5 3 7 5 3 4 3 3 4 5 4 4 4 3 3 2 2 5 7 3 4 10 9 10 7 6 9
10 8 7 12 13 16 14 13 11 10 10 10 9 8 5 5 8 7 5 5 4 2 3 3 4 4 3 4 5 5 6 6 3 5 4 4 5 11 12 8 9 7 8
8 6 7 13 14 16 15 13 11 10 9 9 7 5 5 10 10 10 10 7 5 3 3 3 2 2 3 3 4 5 6 7 5 4 4 5 4 8 11 7 6 6 8
7 7 9 14 15 15 15 13 12 10 9 10 7 4 2 1 6 8 6 10 7 5 3 2 1 2 3 5 6 6 7 7 4 3 4 6 6 9 11 11 9 10 9
7 6 7 13 15 15 15 13 12 11 9 9 9 7 3 2 3 9 7 8 7 4 3 2 2 3 5 6 6 8 6 7 3 4 4 5 6 12 11 12 12 11 11
10 7 7 12 14 15 15 13 13 12 10 9 10 9 6 1 4 7 8 7 6 5 4 4 5 6 7 7 7 8 8 7 5 5 5 5 10 13 13 12 13 13 13
6 8 6 7 11 15 14 13 12 11 10 9 8 9 6 4 1 4 7 7 6 5 5 6 7 8 8 9 8 9 8 8 6 4 5 4 10 13 12 12 13 15 15
6 7 7 7 7 7 7 12 12 11 9 9 7 6 5 5 3 1 4 4 6 7 7 8 8 8 9 10 10 10 9 9 5 5 4 5 14 15 14 14 14 15 15
4 6 6 8 8 6 6 7 10 11 10 9 8 6 4 2 3 4 4 6 7 9 8 8 9 9 9 10 10 11 10 3 4 3 3 11 14 16 17 16 16 17 18
7 7 7 8 8 6 6 5 5 5 4 4 3 3 3 3 3 3 4 5 8 7 7 9 11 11 7 4 3 6 3 5 4 4 3 13 14 13 14 14 13 13 14
9 5 9 8 8 8 6 4 2 2 3 3 4 4 3 2 1 1 1 2 2 4 3 3 4 4 7 5 4 4 5 5 3 3 6 12 12 12 12 12 14 15 12
8 12 10 9 7 7 4 4 4 3 3 3 4 5 3 1 1 0 0 2 2 3 5 5 3 5 6 6 6 5 5 4 3 3 5 13 14 15 14 15 14 18 19
8 11 12 10 9 8 6 4 4 4 4 4 4 5 4 3 2 3 4 4 5 4 4 4 4 5 5 6 5 6 6 6 6 3 3 13 16 16 15 15 17 17 18
12 12 12 12 10 9 8 6 5 4 4 3 3 3 4 3 3 6 5 5 5 4 4 4 5 4 5 4 5 6 6 5 5 6 4 5 16 17 16 17 17 18 19
8 8 14 13 10 11 9 7 5 4 5 4 4 6 5 7 7 6 5 5 4 4 5 5 5 5 5 5 5 5 5 6 5 6 5 4 6 14 16 19 18 19 18
5 9 8 10 10 9 8 6 5 6 7 6 5 6 8 8 7 6 5 5 4 4 4 4 4 4 5 5 4 4 4 4 4 6 5 5 4 5 9 17 17 18 17
6 6 8 9 11 9 8 8 8 9 6 6 6 6 7 8 6 6 5 4 4 4 5 4 4 4 4 6 6 5 4 2 4 4 6 6 6 5 4 11 16 16 16
4 5 7 6 10 11 9 9 8 8 5 5 6 5 10 6 6 6 5 6 5 5 5 4 5 4 2 4 5 7 4 1 2 3 3 4 4 5 4 5 4 5 14
3 6 7 10 11 10 9 8 7 6 5 5 6 7 8 7 6 7 5 5 5 5 4 5 3 4 3 5 3 5 4 2 3 3 2 3 4 4 4 6 4 4 4
7 7 7 8 10 8 7 4 5 6 5 5 4 6 6 7 6 6 6 5 5 4 6 5 5 3 3 4 2 1 5 6 3 11 3 3 5 4 5 9 6 6 5
7 8 8 8 9 8 11 11 9 9 5 3 4 4 5 6 6 6 6 5 5 4 4 3 3 5 3 3 5 3 4 3 5 3 5 2 8 4 6 6 7 7 6
6 7 9 11 10 9 12 13 16 7 6 2 3 4 4 6 6 6 6 6 5 3 5 3 3 3 2 2 3 2 2 3 3 7 3 7 4 8 6 5 6 6 6
8 9 9 10 9 7 9 12 9 9 5 4 5 7 6 5 6 6 6 5 5 3 3 4 3 4 1 0 0 2 2 3 4 4 11 6 9 8 7 7 5 6 7
6 8 9 11 7 8 8 8 12 13 11 8 5 5 4 3 4 5 5 5 4 4 3 2 2 3 3 2 1 2 2 2 3 4 6 11 13 10 6 9 10 5 6
Wind_Direction
223 200 172 165 169 158 150 151 148 141 139 132 143 147 138 132 124 120 125 107 90 68 2 39 63 73 77 94 109 113 101 79 45 18 13 351 323 304 276 261 293 237 288
150 179 169 171 176 158 154 153 149 143 147 139 154 155 150 138 138 113 121 108 112 58 10 15 38 58 57 52 72 51 325 33 19 5 353 346 333 314 284 270 240 251 274
149 165 167 180 170 156 155 154 153 149 147 151 152 168 145 149 121 153 139 132 114 83 55 17 26 34 32 21 16 0 10 303 357 332 353 359 326 312 287 256 252 272 273
151 156 160 171 164 156 154 158 159 155 154 153 156 159 171 142 142 151 165 175 155 112 81 59 39 18 356 345 330 314 313 317 322 318 0 337 328 323 326 234 232 257 277
152 151 160 165 162 156 162 163 162 166 167 169 157 157 182 176 173 175 175 185 166 143 107 100 72 22 0 347 337 324 321 321 348 338 328 320 309 309 315 265 261 281 298
154 154 168 170 167 164 168 165 168 170 179 184 174 137 160 193 235 215 173 171 162 165 150 125 121 295 299 303 306 293 303 309 328 321 309 303 308 294 297 287 262 251 258
161 161 166 175 174 168 172 171 172 176 181 189 189 185 186 355 318 207 187 155 166 174 183 224 295 310 303 294 292 303 311 308 294 272 274 279 281 286 285 280 279 270 272
163 166 167 177 176 174 176 178 180 178 182 185 189 193 184 269 4 138 143 163 181 197 223 251 275 276 281 281 285 286 286 285 282 267 260 261 271 281 281 275 277 276 264
160 159 165 171 175 175 177 178 183 181 183 182 191 196 192 190 26 152 164 179 211 239 246 266 277 287 290 291 292 288 283 278 272 261 265 254 267 278 278 274 273 273 274
160 168 169 163 170 174 177 178 181 186 188 178 184 192 182 207 223 23 158 209 238 256 268 281 289 294 294 292 293 286 282 287 275 267 267 271 284 286 283 277 275 273 268
180 181 174 176 176 177 177 189 185 189 188 188 191 192 197 204 234 238 227 236 259 269 279 294 298 290 285 292 307 312 318 290 282 272 269 280 294 292 292 286 278 276 280
202 201 191 185 180 169 187 181 178 181 179 186 185 196 199 211 220 227 242 269 273 284 311 318 322 332 1 350 349 1 2 344 343 329 316 330 335 332 341 340 333 322 301
210 198 199 192 182 171 185 168 170 171 171 187 200 201 203 215 272 253 232 314 326 309 305 352 13 31 38 17 20 21 23 17 8 2 352 2 1 5 3 360 3 354 323
199 201 198 192 177 177 166 170 173 167 178 189 204 194 177 186 227 184 18 53 59 47 54 41 44 31 31 21 26 29 22 16 3 0 3 14 27 19 19 23 14 23 19
211 206 201 184 178 178 165 164 167 180 181 189 192 196 180 166 154 107 75 67 61 43 44 42 35 33 21 11 17 22 19 8 9 10 0 15 29 30 24 20 28 24 18
226 201 189 190 180 169 176 168 187 166 187 180 174 161 128 119 106 88 82 69 56 55 42 47 49 35 19 4 2 10 10 6 24 22 10 9 25 27 21 28 16 15 10
217 199 181 180 171 170 171 166 183 174 132 100 92 91 112 103 95 91 81 68 57 54 56 42 41 33 21 358 355 355 5 5 26 18 14 15 11 21 25 20 15 14 6
208 192 168 167 163 157 151 142 125 106 104 99 104 98 89 88 88 87 89 74 54 53 50 48 30 27 9 0 335 332 354 358 31 28 22 11 11 22 15 18 13 10 4
206 166 159 147 148 128 109 108 104 100 99 106 93 93 97 79 78 91 81 72 60 55 45 31 33 45 13 352 328 319 343 335 36 9 23 14 20 12 360 9 7 4 357
165 137 126 115 121 119 112 106 99 91 82 79 83 85 90 83 78 83 75 64 57 57 36 27 38 17 33 340 317 315 320 301 37 23 16 3 12 2 345 351 350 338 345
166 150 140 131 139 135 128 124 113 110 99 83 82 84 81 82 75 77 73 65 55 63 53 33 13 19 342 352 342 330 326 320 269 348 357 353 2 352 340 354 337 325 315
171 165 142 140 146 141 132 99 117 125 85 88 83 71 77 81 80 80 83 73 62 63 45 38 39 359 349 17 341 293 346 329 330 323 324 338 347 325 343 333 309 306 303
168 156 142 138 131 122 122 109 99 94 95 90 56 73 62 81 79 81 78 78 69 67 62 52 44 49 0 331 27 73 347 299 320 312 312 325 328 316 313 297 295 297 294
167 139 137 138 131 136 138 135 143 139 133 144 119 103 87 82 79 81 82 78 74 66 56 30 48 51 78 13 324 31 244 234 304 317 291 304 290 309 287 283 287 287 287
149 145 137 131 129 132 134 140 130 117 107 114 106 108 97 77 76 73 78 80 73 61 54 51 32 23 36 190 225 314 290 264 251 263 300 305 302 303 298 285 271 277 283
133 137 136 134 122 123 119 119 130 131 134 129 130 119 111 90 76 67 71 72 68 58 42 29 17 12 356 344 293 286 248 283 284 272 287 303 297 304 305 297 287 274 278